Temperature
19 19 19 19 19 19 19 19 19 19 19 19 19 19 19 19 19 19 19 19 19 19 19 19 19 18 18 18 18 18 18 18 18 18 18 18 17 17 17 17 17 17 17
19 19 19 19 19 19 19 19 19 19 19 19 19 19 19 19 19 19 19 19 19 19 19 19 18 18 18 18 18 18 18 18 18 18 17 17 17 17 17 17 17 17 17
19 19 19 19 19 19 19 19 19 19 19 19 19 19 19 19 19 19 19 19 19 18 18 18 18 18 18 18 18 18 18 18 18 18 17 17 17 17 17 17 17 17 17
19 19 19 19 19 19 19 19 19 19 19 19 19 19 19 19 19 19 19 19 19 18 18 18 18 18 18 18 18 18 18 17 17 17 17 17 17 17 17 17 17 17 16
20 19 19 19 19 19 19 19 19 19 19 19 19 19 19 19 19 19 19 19 19 18 18 18 18 18 18 18 18 18 18 17 17 17 17 17 17 17 17 17 17 16 16
20 20 19 19 19 19 19 19 19 19 19 19 19 19 20 20 19 19 19 19 19 18 18 18 18 18 18 18 18 18 18 17 17 17 17 17 17 17 17 17 17 16 16
19 19 19 19 19 19 19 19 19 19 19 19 19 19 19 20 20 19 19 19 19 18 18 18 18 18 18 18 17 17 17 17 17 17 17 17 17 17 17 17 16 16 16
19 19 19 19 19 19 19 19 19 19 19 19 19 19 19 19 20 19 19 19 19 18 18 18 18 18 17 17 17 17 17 17 17 17 17 17 17 16 16 16 16 16 16
19 19 19 19 19 19 19 19 19 18 18 19 19 19 19 19 19 19 19 19 19 18 18 18 18 18 17 17 17 17 17 17 17 17 17 17 16 16 16 16 16 16 16
19 19 19 19 19 19 18 18 18 18 18 18 18 18 19 19 18 18 19 19 19 18 18 18 17 17 17 17 17 17 17 17 17 17 16 16 16 16 16 16 16 16 16
19 19 18 18 18 18 18 18 18 18 18 18 18 18 18 18 18 18 18 18 18 18 18 18 18 17 17 17 17 17 17 17 16 16 16 16 16 16 16 16 16 16 16
19 19 18 18 18 18 18 18 18 18 18 18 18 18 18 18 18 18 18 18 18 18 18 18 18 17 17 17 17 17 17 17 16 16 16 16 16 16 16 16 16 15 15
19 18 18 18 18 18 18 18 18 18 18 18 18 18 18 18 18 18 18 18 18 18 18 18 18 17 17 17 17 16 16 16 16 16 16 16 16 16 15 15 15 15 15
18 18 18 18 18 18 18 17 17 17 17 17 17 17 17 18 17 18 18 18 18 18 18 17 17 17 17 16 16 16 16 16 16 16 15 15 15 15 15 15 15 15 15
18 18 18 18 17 17 17 17 17 17 17 17 17 17 17 17 17 17 17 17 17 17 17 17 17 17 16 16 16 16 16 16 16 15 15 15 15 15 15 15 15 15 15
18 18 17 17 17 17 17 17 17 17 17 17 17 17 17 17 17 17 17 17 17 17 17 17 17 16 16 16 16 16 15 15 15 15 15 15 15 15 15 15 15 14 14
18 18 18 17 17 17 17 17 17 16 16 16 16 16 16 17 17 17 17 17 17 17 16 16 16 16 16 16 15 15 15 15 15 15 15 15 15 14 14 14 14 14 14
18 17 17 17 17 17 17 17 16 16 16 16 16 16 16 16 16 16 16 16 16 16 16 16 16 16 15 15 15 15 15 15 15 15 15 15 14 14 14 14 14 14 14
17 17 17 17 17 16 16 16 16 16 16 16 16 16 16 16 16 16 16 16 16 16 16 15 15 15 15 15 15 15 15 15 14 14 14 14 14 14 14 14 14 14 14
17 17 17 17 16 16 16 16 16 16 16 15 15 15 15 15 15 15 15 15 15 15 15 15 15 15 15 15 15 15 14 14 14 14 14 14 14 14 14 14 13 13 13
17 17 16 16 16 16 16 16 16 15 15 15 15 15 15 15 15 15 15 15 15 15 15 15 15 14 14 14 14 14 14 14 14 14 14 14 14 14 13 13 13 13 13
16 16 16 16 16 16 16 15 15 15 15 15 15 15 15 15 15 15 15 15 15 15 15 15 14 14 14 14 14 14 14 13 13 14 14 13 13 13 13 13 13 13 13
16 16 16 16 16 16 15 15 15 15 14 14 14 14 14 14 14 14 15 15 15 14 14 14 14 14 14 14 14 13 13 13 13 13 13 13 13 13 13 13 13 13 13
16 16 15 15 15 15 15 15 15 14 14 14 14 14 14 14 14 14 14 14 14 14 14 14 14 14 13 13 13 13 13 13 13 13 13 13 13 13 13 13 13 13 12
15 15 15 15 15 15 15 14 14 14 14 14 14 14 14 14 14 14 13 13 13 14 14 14 13 13 13 13 13 13 13 13 13 13 13 13 13 13 12 12 12 12 12
15 15 15 15 14 14 14 14 14 14 14 13 14 14 13 13 13 13 13 13 13 13 13 13 13 13 13 13 13 13 12 12 12 12 12 12 12 12 12 12 12 12 12
Wind_Speed
0 0 0 1 1 2 2 2 2 2 2 3 3 2 2 2 1 4 6 8 10 11 11 11 11 10 10 9 9 9 9 9 10 10 10 11 11 11 11 11 11 11 12
1 0 1 1 1 1 0 1 2 2 2 2 2 2 3 3 2 3 6 7 10 10 10 11 11 11 11 11 10 10 10 10 10 11 12 12 11 11 12 12 12 12 12
0 1 1 1 1 2 1 2 2 1 2 2 2 3 3 3 3 3 5 6 7 9 10 11 11 11 10 10 10 11 10 10 10 11 12 12 12 12 12 12 12 12 12
0 1 1 0 1 1 1 1 1 1 1 2 2 3 3 3 4 4 5 6 7 7 9 11 10 10 10 9 9 9 10 11 10 10 11 12 13 12 12 12 12 12 12
0 1 1 1 2 1 1 2 0 1 2 2 3 3 2 2 4 4 4 5 6 7 7 9 10 10 9 9 9 9 10 11 11 11 11 11 11 12 12 12 12 13 12
1 2 1 1 2 0 0 1 1 2 2 2 4 2 2 3 3 4 4 3 4 6 7 7 7 7 9 8 8 8 8 8 9 10 10 10 11 11 12 12 13 13 13
1 1 2 0 2 1 0 1 1 2 2 1 2 3 2 3 3 3 3 2 2 3 4 5 6 5 5 7 7 6 6 7 7 7 7 7 8 9 10 11 12 12 12
2 1 1 2 2 1 1 1 2 1 2 1 1 2 2 1 1 2 2 3 3 2 3 4 4 5 5 5 5 6 7 6 5 5 6 7 7 7 8 9 10 11 11
2 2 1 2 3 2 1 2 2 2 2 2 1 1 1 1 2 1 1 2 2 2 3 3 4 5 5 5 5 5 7 6 6 6 6 6 6 6 7 8 9 9 9
1 0 1 1 2 3 2 2 1 2 2 3 2 1 1 1 1 2 1 0 1 2 2 2 2 3 4 3 4 4 4 5 6 6 6 6 6 6 6 6 8 8 8
1 0 0 1 1 2 3 4 3 2 2 3 3 2 2 1 2 2 2 2 2 2 2 3 2 3 4 3 4 5 5 3 3 4 5 5 5 6 6 6 7 8 8
1 0 0 0 1 1 2 3 3 2 3 3 3 3 3 2 2 2 3 3 3 2 2 2 2 2 3 2 2 5 6 5 4 3 4 4 5 5 6 6 6 7 8
1 1 0 0 1 2 2 2 2 2 3 3 3 3 4 4 3 2 2 3 3 2 1 1 1 1 2 4 3 4 5 5 5 4 4 4 4 4 5 5 5 6 6
1 0 1 0 1 2 3 2 3 3 3 3 4 3 4 4 3 3 2 3 3 3 1 1 0 0 1 3 4 5 4 5 5 4 4 3 3 3 3 4 4 4 4
1 1 0 1 1 2 3 3 3 2 3 3 3 3 3 4 3 3 3 2 3 4 3 1 0 0 1 2 4 4 3 6 6 5 5 3 3 2 2 2 2 2 3
1 1 1 1 2 2 2 3 3 3 3 3 3 3 3 4 4 4 3 3 2 3 3 2 1 0 1 0 1 2 3 5 6 6 6 5 4 3 3 2 1 1 1
1 0 1 2 2 2 2 3 4 3 4 4 4 3 4 3 4 4 4 3 2 2 3 3 1 0 1 1 1 2 3 4 5 7 8 7 6 5 4 3 2 1 1
1 1 1 2 2 2 2 4 5 4 4 4 3 3 4 3 4 4 4 3 3 2 2 3 2 0 0 1 2 2 2 3 4 7 9 8 7 6 5 4 3 2 1
2 1 2 2 3 3 2 3 4 4 4 4 3 3 3 3 4 3 4 3 3 3 2 2 3 1 1 1 1 2 2 1 3 6 9 9 8 8 7 5 4 3 3
2 2 2 3 3 2 2 3 4 5 4 4 4 3 3 3 3 4 3 3 3 3 3 3 2 1 1 1 0 1 2 2 2 1 2 5 7 8 8 7 5 5 4
3 2 2 3 3 3 3 3 4 5 4 4 4 4 4 1 1 2 2 2 3 3 3 3 2 1 1 1 1 2 2 2 1 1 1 2 3 3 4 6 6 5 4
2 2 2 2 3 4 4 4 4 5 4 3 4 4 3 2 2 3 3 2 2 2 3 2 2 2 1 1 2 2 2 2 2 1 1 2 2 3 3 4 6 7 6
2 2 2 2 2 3 4 4 5 5 4 3 3 4 5 3 1 2 3 4 4 5 4 2 2 3 2 2 2 2 2 2 3 3 1 2 1 1 1 3 8 8 6
2 2 3 3 2 3 3 4 6 6 4 3 3 3 3 2 4 3 3 2 2 2 3 3 2 2 2 2 2 3 4 4 4 2 1 2 1 1 0 2 7 7 7
3 3 2 2 2 3 4 5 5 5 4 4 2 2 2 2 3 3 3 3 2 2 1 2 3 3 3 3 2 1 2 3 3 2 1 1 1 1 0 1 3 7 7
3 3 2 3 3 3 4 4 5 4 4 3 2 1 2 3 3 3 3 3 3 3 2 2 2 4 4 4 4 3 2 2 2 1 0 1 1 1 1 0 1 3 4
Wind_Direction
214 161 105 269 248 219 194 214 219 226 236 234 237 228 246 253 219 147 166 179 183 190 197 203 206 207 211 213 217 222 226 229 227 225 226 228 229 230 230 231 234 235 235
128 213 205 257 288 276 180 255 245 219 227 234 217 224 227 226 219 169 173 186 193 197 201 206 210 212 214 217 221 222 225 227 231 230 228 230 232 235 235 235 236 238 238
145 258 244 233 285 283 221 243 272 253 234 236 224 223 224 212 193 185 180 184 193 202 204 205 210 215 218 221 225 224 225 226 230 234 231 231 233 235 237 239 240 239 239
206 264 258 236 274 274 230 226 252 269 284 265 247 235 219 200 185 193 198 196 193 198 203 207 210 215 219 223 230 230 225 225 228 233 235 233 232 233 237 239 241 241 240
204 253 253 252 264 243 278 279 171 282 273 273 264 232 214 201 196 203 202 197 197 189 191 198 203 208 215 222 227 231 231 229 228 231 235 236 234 234 237 238 241 242 243
287 296 229 219 286 259 291 319 300 269 257 267 287 283 238 212 197 193 198 199 189 192 191 183 188 204 212 218 224 229 236 234 232 232 234 234 233 234 239 241 243 244 245
315 317 327 236 277 301 333 311 292 284 272 253 291 297 261 217 201 186 183 189 191 188 179 171 174 179 186 207 221 230 235 237 237 232 228 228 230 235 241 244 246 248 246
316 286 285 306 287 272 250 276 282 282 280 263 281 297 295 276 289 204 172 182 194 180 175 179 175 168 175 175 201 217 224 230 238 232 227 228 236 242 244 249 249 249 246
238 297 344 307 316 308 273 247 274 275 289 287 264 270 286 300 315 263 216 193 171 190 188 172 171 168 174 168 181 207 216 218 230 236 235 235 239 246 246 252 250 249 247
235 205 331 318 315 325 325 284 281 284 286 283 284 282 270 296 291 297 285 229 194 201 186 197 184 165 154 155 162 176 199 213 223 238 243 242 245 251 257 262 254 251 247
199 323 139 273 298 309 319 320 334 320 312 308 307 306 295 271 249 248 282 284 253 225 200 205 179 173 161 171 155 153 169 181 208 239 254 255 253 253 259 262 261 256 252
198 249 166 224 284 289 296 304 307 311 306 309 314 312 298 283 272 251 259 271 266 236 209 209 195 180 163 165 180 162 168 181 195 225 249 258 257 254 259 260 266 264 261
202 163 297 287 282 288 287 296 289 293 291 292 289 295 290 279 279 270 263 273 277 266 230 220 203 156 171 158 155 170 178 182 196 213 229 248 259 261 260 259 267 273 268
314 86 151 230 286 290 292 286 273 271 279 278 282 291 292 293 288 279 269 271 289 288 282 276 279 152 181 147 151 158 173 188 192 201 217 234 251 261 262 261 270 287 282
303 42 314 268 272 285 293 293 287 292 297 287 288 290 286 289 295 289 279 269 265 284 285 262 266 119 58 117 143 161 173 194 194 196 204 211 225 232 236 254 262 275 288
339 337 333 308 296 293 299 296 286 277 275 276 274 295 300 301 301 297 290 286 273 269 282 295 268 319 37 128 150 185 175 187 192 195 196 196 195 193 200 210 240 278 299
269 287 307 302 305 310 305 296 289 287 283 289 292 295 291 290 305 305 311 307 304 297 282 297 327 43 24 55 231 223 183 182 190 199 197 196 193 190 189 197 207 226 257
236 246 269 288 294 297 298 295 297 298 295 289 288 290 295 301 301 299 309 307 307 300 290 291 294 303 311 232 230 240 228 211 194 197 193 195 197 196 192 189 191 196 200
235 241 254 267 278 282 292 298 299 297 292 285 276 270 275 287 296 303 306 307 306 310 300 275 277 276 284 288 287 282 282 265 222 190 192 199 202 202 199 192 192 198 197
245 253 259 264 270 290 302 307 305 293 292 292 286 278 267 264 282 289 292 308 308 305 293 276 258 248 249 267 88 291 306 312 302 237 200 199 202 205 201 194 198 202 199
258 264 263 269 268 271 292 307 297 288 291 289 286 280 271 258 290 284 290 303 305 305 307 305 297 307 301 0 315 294 309 305 292 304 289 220 180 192 201 205 204 203 201
252 254 261 272 277 285 312 315 306 292 285 287 295 295 278 248 246 242 255 254 267 276 288 298 307 302 312 310 298 297 311 315 292 284 289 269 177 187 189 189 193 193 194
252 264 268 264 268 289 314 315 309 293 285 285 287 294 295 306 315 287 274 243 242 249 239 242 275 283 278 303 302 291 291 283 273 271 260 271 235 216 166 171 174 178 186
266 252 250 251 258 287 306 306 306 286 282 275 272 275 284 300 309 319 296 277 247 248 236 226 232 255 256 275 273 269 266 268 262 266 267 267 256 256 55 149 175 177 187
257 251 261 259 261 281 279 285 295 281 273 272 266 277 267 252 297 317 295 276 264 251 227 196 205 215 224 228 234 286 282 276 274 238 226 246 269 257 212 171 188 189 193
258 260 260 267 270 267 263 274 291 288 284 280 262 251 255 254 253 264 259 262 269 282 275 265 238 230 221 218 219 228 261 275 285 270 208 231 279 313 293 175 144 181 203
Height
1522 1522 1522 1522 1522 1522 1522 1523 1523 1523 1523 1523 1524 1524 1524 1525 1525 1524 1524 1524 1524 1524 1525 1525 1526 1526 1526 1526 1527 1527 1528 1528 1529 1530 1530 1531 1531 1532 1532 1533 1534 1535 1536
1522 1522 1522 1522 1522 1522 1522 1522 1522 1522 1522 1523 1523 1523 1523 1523 1523 1523 1523 1523 1523 1523 1524 1524 1524 1524 1524 1525 1525 1525 1525 1526 1526 1527 1527 1528 1528 1529 1529 1530 1531 1531 1532
1521 1522 1522 1522 1522 1522 1522 1522 1522 1521 1521 1521 1521 1521 1521 1521 1521 1522 1521 1521 1521 1521 1522 1522 1522 1522 1522 1522 1522 1523 1523 1523 1523 1524 1524 1524 1525 1526 1526 1526 1527 1528 1529
1521 1521 1521 1521 1521 1521 1521 1521 1520 1520 1520 1520 1520 1520 1520 1520 1519 1519 1519 1519 1519 1519 1520 1520 1520 1520 1520 1520 1520 1520 1520 1520 1520 1520 1520 1520 1521 1522 1522 1523 1523 1524 1525
1521 1521 1521 1521 1521 1520 1520 1520 1520 1519 1519 1519 1519 1518 1518 1518 1518 1518 1518 1518 1518 1518 1518 1518 1518 1518 1518 1518 1518 1518 1518 1517 1517 1517 1517 1517 1517 1518 1519 1519 1520 1520 1521
1520 1520 1520 1520 1520 1520 1519 1519 1519 1518 1518 1518 1518 1517 1517 1516 1516 1516 1516 1516 1516 1516 1516 1515 1515 1515 1515 1515 1515 1515 1515 1514 1514 1514 1514 1513 1514 1514 1515 1515 1516 1516 1517
1519 1519 1519 1519 1519 1519 1518 1518 1518 1517 1517 1517 1516 1516 1515 1515 1515 1514 1514 1514 1514 1514 1514 1514 1513 1513 1513 1513 1512 1512 1512 1512 1511 1511 1511 1511 1511 1511 1511 1512 1512 1512 1513
1518 1519 1518 1518 1518 1518 1517 1517 1517 1516 1516 1517 1516 1515 1515 1515 1514 1513 1513 1513 1512 1512 1512 1512 1511 1511 1510 1510 1510 1510 1509 1509 1508 1508 1508 1508 1508 1508 1508 1508 1508 1508 1509
1517 1517 1517 1516 1516 1516 1516 1516 1515 1515 1515 1515 1515 1515 1515 1513 1513 1512 1512 1511 1511 1511 1510 1510 1509 1509 1508 1507 1507 1507 1506 1506 1506 1505 1505 1505 1505 1505 1504 1504 1504 1505 1505
1516 1516 1515 1515 1515 1515 1514 1514 1514 1514 1514 1514 1514 1514 1514 1513 1512 1511 1511 1510 1509 1509 1508 1508 1507 1507 1506 1505 1504 1504 1503 1503 1503 1503 1502 1502 1502 1501 1501 1501 1501 1501 1501
1515 1514 1514 1514 1513 1513 1513 1513 1513 1512 1512 1512 1512 1512 1512 1511 1511 1510 1509 1508 1508 1507 1506 1506 1505 1504 1504 1503 1502 1501 1501 1500 1500 1500 1500 1499 1499 1498 1498 1497 1497 1497 1498
1514 1513 1513 1512 1512 1511 1511 1511 1511 1510 1510 1510 1509 1509 1510 1509 1509 1508 1507 1506 1506 1506 1505 1504 1503 1503 1502 1501 1500 1499 1499 1498 1497 1497 1496 1496 1495 1495 1495 1494 1494 1494 1494
1512 1511 1511 1510 1510 1509 1509 1509 1509 1508 1508 1507 1507 1506 1507 1507 1507 1506 1505 1504 1504 1503 1502 1502 1501 1501 1500 1498 1498 1497 1497 1496 1495 1495 1494 1493 1493 1492 1492 1491 1491 1491 1491
1511 1510 1509 1509 1508 1507 1507 1507 1506 1506 1505 1505 1505 1504 1504 1504 1504 1504 1504 1503 1501 1501 1500 1499 1499 1498 1497 1496 1496 1495 1493 1493 1493 1492 1492 1491 1490 1489 1489 1489 1488 1488 1487
1509 1508 1508 1507 1506 1506 1505 1504 1504 1503 1503 1503 1502 1502 1501 1501 1501 1501 1501 1501 1501 1499 1498 1497 1496 1496 1495 1494 1493 1493 1492 1490 1490 1489 1489 1488 1487 1486 1486 1486 1485 1485 1485
1507 1507 1506 1505 1505 1504 1503 1502 1502 1501 1501 1500 1500 1499 1499 1498 1498 1498 1498 1498 1497 1497 1495 1495 1494 1493 1492 1491 1490 1490 1489 1488 1488 1487 1487 1486 1485 1484 1484 1483 1483 1482 1482
1505 1504 1504 1503 1503 1502 1501 1500 1500 1499 1499 1498 1498 1497 1497 1496 1495 1495 1495 1495 1494 1494 1493 1492 1492 1490 1490 1489 1488 1487 1487 1486 1485 1485 1485 1484 1483 1482 1481 1481 1481 1480 1480
1503 1502 1502 1501 1500 1499 1499 1498 1497 1497 1496 1495 1495 1494 1494 1494 1493 1492 1492 1492 1491 1491 1491 1489 1489 1488 1487 1486 1486 1485 1485 1484 1483 1483 1482 1482 1481 1480 1479 1479 1478 1478 1477
1500 1500 1499 1499 1498 1497 1496 1495 1495 1494 1493 1492 1492 1491 1491 1490 1490 1489 1489 1488 1488 1488 1487 1487 1486 1485 1484 1484 1484 1483 1483 1482 1481 1481 1480 1479 1478 1478 1477 1477 1476 1475 1474
1498 1497 1497 1496 1495 1495 1494 1493 1492 1491 1490 1489 1489 1488 1488 1487 1487 1486 1486 1485 1485 1484 1484 1483 1483 1482 1482 1481 1481 1480 1480 1480 1479 1479 1478 1477 1476 1476 1475 1474 1474 1473 1473
1495 1494 1493 1493 1492 1492 1491 1490 1489 1488 1487 1486 1485 1485 1484 1484 1483 1483 1482 1482 1481 1481 1481 1480 1480 1479 1479 1479 1478 1477 1477 1477 1477 1477 1476 1476 1475 1473 1473 1472 1471 1471 1470
1491 1490 1490 1490 1489 1489 1488 1487 1486 1484 1483 1482 1482 1481 1481 1480 1479 1479 1479 1478 1478 1478 1478 1477 1477 1476 1476 1476 1476 1475 1475 1475 1475 1475 1474 1474 1473 1472 1471 1470 1469 1469 1469
1488 1487 1487 1486 1485 1485 1484 1483 1482 1481 1480 1479 1478 1478 1478 1477 1476 1476 1475 1475 1475 1475 1475 1475 1474 1473 1474 1474 1474 1473 1473 1472 1472 1472 1472 1471 1471 1470 1470 1469 1468 1467 1467
1485 1484 1484 1483 1482 1481 1480 1480 1479 1478 1476 1475 1475 1474 1474 1473 1473 1472 1472 1471 1471 1471 1471 1471 1471 1471 1471 1471 1471 1471 1471 1470 1470 1470 1470 1469 1469 1469 1468 1467 1466 1466 1465
1482 1481 1481 1480 1479 1478 1477 1476 1475 1474 1473 1472 1471 1470 1470 1470 1469 1469 1469 1469 1468 1468 1468 1468 1468 1468 1468 1468 1468 1468 1468 1468 1467 1467 1467 1467 1467 1466 1466 1465 1465 1465 1464
1479 1478 1477 1477 1476 1475 1474 1473 1472 1470 1470 1469 1468 1467 1467 1466 1466 1466 1466 1465 1465 1464 1465 1465 1465 1465 1465 1465 1465 1465 1465 1465 1465 1465 1465 1465 1465 1464 1464 1463 1463 1463 1462